www.pogodaiklimat.ru

Погода и климат >> Архив погоды >> Россия >> Хабаровский край >> Комсомольск-на-Амуре


ПОГОДА в Комсомольске-на-Амуре

АРХИВ ПОГОДЫ в Комсомольске-на-Амуре

Время (UTC), дата Ветер
(напр.,м/с)
 
Видим.   Явления Облачность Т
(С)
Тd
(С)
f
(%)
Тe
(С)
Тes
(С)
Комфортность P
(гПа)
Po
(гПа)
Тmin
(С)
Tmax
(С)
R
(мм)
R24
(мм)
S
(см)
09 16.08 СВ 3 2000 м ливневой дождь 10/10 600 м
[Cb cap]
+15.4 +14.4 94 +15 +15 холодно 1005.6 1003.3 +16.2 8
12 16.08 СВ 3 4000 м слаб. ливневой дождь 10/10 600 м
[Cb cap]
+15.0 +14.0 94 +14 +14 холодно 1005.7 1003.4
15 16.08 С 3 10 км слаб. ливневой дождь 10/10 600 м
[Cb cap]
+14.4 +13.6 95 +13 +13 прохладно 1005.0 1002.6
18 16.08 СВ 3 10 км слаб. ливневой дождь 10/10 600 м
[Cb cap]
+14.0 +13.5 97 +13 +13 прохладно 1004.1 1001.7
21 16.08 СВ 4
{10}
2000 м ливневой дождь 10/10 600 м
[Cb cap]
+13.6 +13.1 97 +12 +12 холодно 1004.0 1001.6 +13.6 32
00 17.08 СВ 5-10
{10}
20 км ливневой дождь 10/10 600 м
[Cb cap]
+13.2 +12.2 94 +11 +11 очень
холодно
1004.3 1001.9 +13.2
03 17.08 СВ 5
{11}
2000 м ливневой дождь 10/10 600 м
[Cb cap]
+12.7 +12.0 96 +10 +10 очень
холодно
1005.3 1002.9
06 17.08 СВ 4
{11}
2000 м ливневой дождь 10/10 600 м
[Cb cap]
+13.1 +12.3 95 +11 +11 очень
холодно
1005.6 1003.2
09 17.08 СВ 4 2000 м ливневой дождь 10/10 600 м
[Cb cap]
+12.0 +11.3 95 +10 +10 очень
холодно
1006.5 1004.1 +13.6 39
12 17.08 С 4 2000 м ливневой дождь 10/10 600 м
[Cb cap]
+11.0 +10.3 95 +8 +8 очень
холодно
1007.8 1005.4
15 17.08 С 3 2000 м ливневой дождь 10/10 600 м
[Cb cap]
+10.7 +10.1 96 +9 +9 очень
холодно
1007.7 1005.3
18 17.08 С 3 10 км {ливн. осадки} 10/10 600 м
[Cb cap]
+10.8 +9.5 92 +9 +9 холодно 1008.0 1005.6
21 17.08 С 3 20 км 10/10 600 м
[Sc]
+10.8 +9.1 89 +9 +9 очень
холодно
1008.7 1006.3 +10.5 15
00 18.08 С 2 10 км слаб. дождь 10/6 600 м
[Sc As op]
+12.3 +10.4 88 +11 +12 очень
холодно
1009.3 1006.9
03 18.08 С 3 10 км слаб. ливневой дождь 10/10 300 м
[Cb cap]
+13.4 +12.1 92 +12 +12 очень
холодно
1009.9 1007.5
06 18.08 С 3 20 км в посл. час ливневой дождь 10/10 600 м
[Cb cap]
+13.9 +12.5 91 +13 +13 очень
холодно
1009.7 1007.3
09 18.08 С 2 10 км в посл. час ливневой дождь 10/10 600 м
[Cb cap]
+13.7 +12.5 92 +13 +13 очень
холодно
1010.0 1007.6 +14.1 4
12 18.08 С 4 20 км {ливн. осадки} 10/10 600 м
[Cb cap]
+13.4 +12.0 91 +12 +12 холодно 1011.1 1008.7
15 18.08 С 3 20 км 10/10 600 м
[Sc]
+13.1 +11.9 92 +12 +12 холодно 1011.1 1008.7
18 18.08 С 3 20 км 10/10 600 м
[Cb cap]
+13.1 +11.9 92 +12 +12 прохладно 1011.3 1008.9
21 18.08 С 2 10 км слаб. ливневой дождь 10/8 300 м
[Cb cap As op]
+13.0 +12.1 94 +12 +12 холодно 1012.4 1010.0 +13.0 0.3
00 19.08 С 2 20 км в посл. час ливневой дождь 10/10 300 м
[Cb cap]
+13.9 +13.3 96 +13 +13 холодно 1012.9 1010.5 +13.0
03 19.08 С 3 4000 м дымка {ливн. осадки} 10/10 300 м
[Cb cap]
+15.5 +14.5 94 +15 +15 холодно 1013.1 1010.7
06 19.08 СВ 2 20 км {ливн. осадки} 10/0
[]
+16.8 +14.7 87 +17 +21 холодно 1012.7 1010.3
09 19.08 С 2 20 км 10/8 600 м
[Sc As op]
+16.7 +15.1 90 +17 +17 прохладно 1012.9 1010.5 +17.4 7
12 19.08 С 2 20 км 10/8 600 м
[Sc As op]
+15.9 +14.6 92 +16 +16 прохладно 1013.3 1010.9
15 19.08 С 3 20 км 10/10 600 м
[Sc]
+15.5 +14.5 94 +15 +15 по сезону 1013.4 1011.0
18 19.08 С 2 10 км слаб. ливневой дождь 10/10 300 м
[Cb cap]
+14.7 +14.1 96 +14 +14 по сезону 1013.2 1010.8
21 19.08 С 2 20 км {ливн. осадки} 10/8 300 м
[St As op]
+14.6 +13.7 94 +14 +14 прохладно 1013.3 1010.9 +14.5 4
00 20.08 С 3 20 км {ливн. осадки} 10/8 600 м
[Cb cap As op]
+15.8 +14.0 89 +15 +16 холодно 1013.1 1010.8
03 20.08 С 4 20 км {ливн. осадки} 10/10 600 м
[Cb cap]
+17.1 +14.6 85 +17 +17 холодно 1013.0 1010.6
06 20.08 СВ 3 20 км {ливн. осадки} 9/8 600 м
[Sc Ac trans]
+19.1 +14.9 77 +21 +22 комфорт 1012.4 1010.0
09 20.08 С 3 20 км 10/10 600 м
[Cb cap]
+17.0 +14.4 85 +17 +17 прохладно 1012.9 1010.5 +19.6 0.0
12 20.08 С 2 20 км 10/10 600 м
[Cb cap]
+15.7 +14.0 90 +16 +16 прохладно 1013.9 1011.5
15 20.08 С 2 20 км 10/4 600 м
[Sc As op Ci fib]
+15.5 +14.0 91 +15 +15 по сезону 1013.7 1011.3
18 20.08 С 3 20 км 10/8 600 м
[Sc Ac trans]
+15.2 +13.8 91 +14 +14 по сезону 1013.2 1010.8
21 20.08 С 3 20 км 10/10 600 м
[Cb cap]
+15.2 +13.9 92 +14 +14 прохладно 1014.0 1011.6 +15.1
00 21.08 С 3 20 км 10/10 600 м
[Sc]
+16.4 +14.3 87 +16 +16 прохладно 1014.1 1011.7
03 21.08 С 3 20 км 10/10 600 м
[Sc]
+17.5 +15.0 85 +18 +18 прохладно 1013.6 1011.3
06 21.08 С 3 20 км 10/10 600 м
[Sc]
+18.5 +15.6 83 +19 +19 прохладно 1012.2 1009.8
09 21.08 С 3 20 км 10/10 600 м
[Sc]
+17.8 +15.7 88 +18 +18 прохладно 1012.2 1009.8 +18.8
12 21.08 СВ 3 20 км 10/10 600 м
[Sc]
+17.2 +15.2 88 +17 +17 по сезону 1012.6 1010.2
15 21.08 СВ 2 20 км 10/10 600 м
[Sc]
+16.6 +14.2 86 +17 +17 по сезону 1012.4 1010.0
18 21.08 С 2 20 км {ливн. осадки} 10/10 600 м
[Sc]
+15.6 +14.1 91 +15 +15 по сезону 1012.6 1010.2
21 21.08 С 2 20 км 10/10 600 м
[Sc]
+15.4 +13.5 88 +15 +15 прохладно 1013.1 1010.7 +15.3 0.1
00 22.08 СВ 3 20 км 10/10 600 м
[Cb cap]
+16.6 +13.3 81 +16 +16 прохладно 1013.6 1011.2
03 22.08 С 3 20 км 10/10 600 м
[Sc]
+18.1 +13.0 72 +18 +18 прохладно 1013.4 1011.0
06 22.08 С 2 20 км 10/10 600 м
[Sc]
+19.5 +13.9 70 +22 +22 комфорт 1012.8 1010.4
09 22.08 С 2 20 км в посл. час ливневой дождь 10/10 600 м
[Cb cap]
+17.1 +14.8 86 +17 +17 прохладно 1013.1 1010.7 +19.7 0.1
12 22.08 С 2 10 км слаб. ливневой дождь 10/10 600 м
[Cb cap]
+15.8 +14.7 93 +16 +16 по сезону 1013.7 1011.3
15 22.08 С 2 20 км 10/8 600 м
[Sc Ac und]
+15.5 +14.4 93 +15 +15 по сезону 1013.8 1011.4
18 22.08 С 2 20 км 10/10 600 м
[Sc]
+15.2 +14.1 93 +15 +15 по сезону 1013.9 1011.5
21 22.08 С 3 20 км 10/10 600 м
[Sc]
+14.9 +13.5 91 +14 +14 прохладно 1014.0 1011.6 +14.8 0.4
00 23.08 С 3 20 км 10/8 600 м
[Sc Ac trans]
+15.9 +13.3 85 +15 +16 прохладно 1014.2 1011.9
03 23.08 С 3 20 км 10/8 600 м
[Sc Ac As]
+17.9 +13.3 74 +18 +19 прохладно 1013.7 1011.3
06 23.08 С 3
{10}
20 км 10/10 600 м
[Sc]
+17.5 +13.5 77 +18 +18 холодно 1013.3 1010.9

 

Местоположение метеостанции Комсомольск-на-Амуре (Хабаровский край, Россия): широта 50.53 долгота 137.00 высота над уровнем моря 21 м.

В архиве по умолчанию представлена погода в Комсомольске-на-Амуре за последнюю неделю. Архивные данные за месяц целиком и за предыдущие месяцы, начиная с января 2011 года, Вы можете получить, выбрав интересующий диапазон дат из раскрывающегося списка и нажав кнопку "Ввод!".


*Определитесь, кто Вы:
робот инопланетянин человек

Внимание! Время в таблицах - всемирное. Для получения местного времени необходимо прибавить поправку, которая равна 10 ч.

Смотрите также архив погоды в соседних городах и на ближайших метеорологических станциях:

Погода в Амурске (Хабаровский край, Россия) (28 км)
Погода в Горине (Хабаровский край, Россия) (76 км)
Погода в Нижнетамбовском (Хабаровский край, Россия) (89 км)
Погода в Сегжеме (Хабаровский край, Россия) (101 км)
Погода в Троицком (Хабаровский край, Россия) (124 км)
Погода в Солекуль (Хабаровский край, Россия) (167 км)
Погода в Хуларине (Хабаровский край, Россия) (172 км)
Погода в Циммермановка (Хабаровский край, Россия) (178 км)
Погода в Куре (Хабаровский край, Россия) (183 км)
Погода в Литовко (Хабаровский край, Россия) (199 км)

Пояснения к столбцам:

Ветер - указаны скорость ветра в м/с - средняя за 10 мин, порывы в срок и между сроками (в фигурных скобках) и направление, откуда дует ветер: С - северный, СВ - северо-восточный, В - восточный, ЮВ - юго-восточный, Ю - южный, ЮЗ - юго-западный, З - западный, СЗ - северо-западный.
Видимость - горизонтальная дальность видимости в метрах или километрах. При видимости от 1 до 10 км при отсутствии осадков обычно наблюдается дымка, при ухудшении видимости до 1 км и менее - туман. В сухую погоду видимость может ухудшаться дымом, пылью или мглою.
Явления - указаны атмосферные явления, наблюдавшиеся в срок или в последний час перед сроком; фигурными скобками обозначены явления, наблюдавшиеся между сроками (за 1-3 часа до срока); квадратными скобками обозначены град или гололедные отложения с указанием их диаметра в мм.
Облачность - указаны через наклонную черту общая и нижняя облачность в баллах и высота нижней границы облаков в метрах; квадратными скобками обозначены формы облаков: Ci - перистые, Cs - перисто-слоистые, Cc - перисто-кучевые, Ac - высококучевые, As - высокослоистые, Sc - слоисто-кучевые, Ns - слоисто-дождевые, Cu - кучевые, Cb - кучево-дождевые. Подробнее классификацию облаков см. в Атласе облаков (PDF).
T - Температура воздуха - температура, измеренная на высоте 2 м над землей.
Td - Температура точки росы - температура, при понижении до которой содержащийся в воздухе водяной пар достигнет насыщения.
f - Относительная влажность воздуха - влажноcть воздуха, измеренная на высоте 2 м над землей.
Te - Эффективная температура - температура, которую ощущает одетый по сезону человек в тени. Характеристика душности погоды. При расчете учитывается влияние влажности воздуха и скорости ветра на теплоощущения человека.
Tes - Эффективная температура на солнце - температура, которую ощущает человек, с поправкой на солнечный нагрев. Характеристика знойности погоды. Зависит от высоты солнца над горизонтом, облачности и скорости ветра. Ночью, в пасмурную погоду, а также при ветре 12 м/с и более поправка равна нулю.
P - Атмосферное давление - приведенное к уровню моря атмосферное давление.
Po - Атмосферное давление - измеренное на уровне метеостанции атмосферное давление.
Tmin - Минимальная температура - минимум температуры воздуха на высоте 2 м над землей.
Tmax - Максимальная температура - максимум температуры воздуха на высоте 2 м над землей.
R - Количество осадков - Количество выпавших осадков за период времени, мм. При наведении курсора мыши на число - период времени, за который выпало указанное количество осадков.
R24 - Количество осадков - Количество выпавших осадков за 24 часа, мм.
S - Снежный покров - Высота снежного покрова, см. При наведении курсора мыши на число - состояние снежного покрова и степень покрытия местности в баллах.